Location: Zagreb
(45.8000°N, 16.0000°E)
Time: 19:34:22
(UTC+02:00)

SR - Pass Details

Date: 12 August 2020
Orbit: 583 x 873 km, 66.7° (Epoch: 28 September)

Event Time Altitude Azimuth Distance (km) Brightness Sun altitude
Rises 20:42:55 0° 168° (SSE) 2,986 ? -6.3°
Reaches altitude 10° 20:45:59 10° 148° (SSE) 2,026 ? -6.7°
Maximum altitude 20:48:48 16° 109° (ESE) 1,607 ? -7.2°
Drops below altitude 10° 20:51:33 10° 70° (ENE) 1,957 ? -7.6°
Sets 20:54:26 0° 49° (NE) 2,837 ? -8.0°
